Time,TemperatureF,DewpointF,PressureIn,WindDirection,WindDirectionDegrees,WindSpeedMPH,WindSpeedGustMPH,Humidity,HourlyPrecipIn,Conditions,Clouds,dailyrainin,SoftwareType,DateUTC
2013-02-12 00:00:00,44.2,43.0,29.64,WNW,284,7.0,-999.0,96,-99.99,,,0.00,weatherlink.com 1.10,2013-02-12 05:00:00,
2013-02-12 00:15:00,43.7,43.0,29.65,NW,317,4.0,-999.0,96,-99.99,,,0.00,weatherlink.com 1.10,2013-02-12 05:15:00,
2013-02-12 00:30:00,43.3,42.0,29.65,West,279,6.0,-999.0,96,-99.99,,,0.00,weatherlink.com 1.10,2013-02-12 05:30:00,
2013-02-12 00:45:00,42.9,42.0,29.65,WNW,286,2.0,-999.0,96,-99.99,,,0.00,weatherlink.com 1.10,2013-02-12 05:45:00,
2013-02-12 01:00:00,42.4,41.0,29.65,WSW,252,3.0,-999.0,96,-99.99,,,0.00,weatherlink.com 1.10,2013-02-12 06:00:00,
2013-02-12 01:15:00,42.3,42.0,29.66,SW,226,5.0,-999.0,97,-99.99,,,0.00,weatherlink.com 1.10,2013-02-12 06:15:00,
2013-02-12 01:30:00,43.1,40.0,29.66,West,280,13.0,-999.0,89,-99.99,,,0.00,weatherlink.com 1.10,2013-02-12 06:30:00,
2013-02-12 01:45:00,43.7,38.0,29.66,West,281,7.0,-999.0,81,-99.99,,,0.00,weatherlink.com 1.10,2013-02-12 06:45:00,
2013-02-12 02:00:00,43.3,38.0,29.67,WSW,257,6.0,-999.0,82,-99.99,,,0.00,weatherlink.com 1.10,2013-02-12 07:00:00,
2013-02-12 02:15:00,42.9,37.0,29.67,West,268,6.0,-999.0,81,-99.99,,,0.00,weatherlink.com 1.10,2013-02-12 07:15:00,
2013-02-12 02:30:00,42.7,36.0,29.68,WNW,286,7.0,-999.0,77,-99.99,,,0.00,weatherlink.com 1.10,2013-02-12 07:30:00,
2013-02-12 02:45:00,42.1,35.0,29.68,WSW,237,3.0,-999.0,75,-99.99,,,0.00,weatherlink.com 1.10,2013-02-12 07:45:00,
2013-02-12 03:00:00,41.7,34.0,29.68,WNW,290,6.0,-999.0,74,-99.99,,,0.00,weatherlink.com 1.10,2013-02-12 08:00:00,
2013-02-12 03:15:00,41.4,34.0,29.68,West,272,7.0,-999.0,74,-99.99,,,0.00,weatherlink.com 1.10,2013-02-12 08:15:00,
2013-02-12 03:30:00,41.0,33.0,29.69,WNW,290,6.0,-999.0,74,-99.99,,,0.00,weatherlink.com 1.10,2013-02-12 08:30:00,
2013-02-12 03:45:00,40.7,33.0,29.70,WNW,294,6.0,-999.0,74,-99.99,,,0.00,weatherlink.com 1.10,2013-02-12 08:45:00,
2013-02-12 04:00:00,40.4,33.0,29.70,West,270,9.0,-999.0,74,-99.99,,,0.00,weatherlink.com 1.10,2013-02-12 09:00:00,
2013-02-12 04:15:00,39.8,32.0,29.70,West,267,2.0,-999.0,75,-99.99,,,0.00,weatherlink.com 1.10,2013-02-12 09:15:00,
2013-02-12 04:30:00,39.3,32.0,29.70,West,275,5.0,-999.0,75,-99.99,,,0.00,weatherlink.com 1.10,2013-02-12 09:30:00,
2013-02-12 04:45:00,40.1,32.0,29.71,West,276,4.0,-999.0,72,-99.99,,,0.00,weatherlink.com 1.10,2013-02-12 09:45:00,
2013-02-12 05:00:00,39.7,32.0,29.70,WNW,286,7.0,-999.0,73,-99.99,,,0.00,weatherlink.com 1.10,2013-02-12 10:00:00,
2013-02-12 05:15:00,40.2,31.0,29.71,WSW,247,7.0,-999.0,71,-99.99,,,0.00,weatherlink.com 1.10,2013-02-12 10:15:00,
2013-02-12 05:30:00,39.9,31.0,29.72,SW,215,3.0,-999.0,70,-99.99,,,0.00,weatherlink.com 1.10,2013-02-12 10:30:00,
2013-02-12 05:45:00,40.0,30.0,29.73,WSW,258,5.0,-999.0,68,-99.99,,,0.00,weatherlink.com 1.10,2013-02-12 10:45:00,
2013-02-12 06:00:00,40.6,29.0,29.72,West,271,8.0,-999.0,64,-99.99,,,0.00,weatherlink.com 1.10,2013-02-12 11:00:00,
2013-02-12 06:15:00,40.9,29.0,29.73,South,190,3.0,-999.0,63,-99.99,,,0.00,weatherlink.com 1.10,2013-02-12 11:15:00,
2013-02-12 06:30:00,40.5,29.0,29.73,WSW,257,14.0,-999.0,63,-99.99,,,0.00,weatherlink.com 1.10,2013-02-12 11:30:00,
2013-02-12 06:45:00,39.9,29.0,29.74,SW,225,1.0,-999.0,65,-99.99,,,0.00,weatherlink.com 1.10,2013-02-12 11:45:00,
2013-02-12 07:00:00,39.9,29.0,29.74,SW,231,5.0,-999.0,64,-99.99,,,0.00,weatherlink.com 1.10,2013-02-12 12:00:00,
2013-02-12 07:15:00,40.1,28.0,29.75,West,261,8.0,-999.0,62,-99.99,,,0.00,weatherlink.com 1.10,2013-02-12 12:15:00,
2013-02-12 07:30:00,40.2,28.0,29.76,West,262,6.0,-999.0,62,-99.99,,,0.00,weatherlink.com 1.10,2013-02-12 12:30:00,
2013-02-12 07:45:00,40.6,28.0,29.77,SW,229,14.0,-999.0,61,-99.99,,,0.00,weatherlink.com 1.10,2013-02-12 12:45:00,
2013-02-12 08:00:00,41.2,28.0,29.78,WSW,251,12.0,-999.0,59,-99.99,,,0.00,weatherlink.com 1.10,2013-02-12 13:00:00,
2013-02-12 08:15:00,41.8,28.0,29.79,West,273,19.0,-999.0,58,-99.99,,,0.00,weatherlink.com 1.10,2013-02-12 13:15:00,
2013-02-12 08:30:00,42.7,29.0,29.79,West,259,8.0,-999.0,58,-99.99,,,0.00,weatherlink.com 1.10,2013-02-12 13:30:00,
2013-02-12 08:45:00,43.0,28.0,29.79,SW,220,11.0,-999.0,56,-99.99,,,0.00,weatherlink.com 1.10,2013-02-12 13:45:00,
2013-02-12 09:00:00,42.5,28.0,29.79,WSW,244,12.0,-999.0,57,-99.99,,,0.00,weatherlink.com 1.10,2013-02-12 14:00:00,
2013-02-12 09:15:00,43.0,28.0,29.80,SW,223,14.0,-999.0,56,-99.99,,,0.00,weatherlink.com 1.10,2013-02-12 14:15:00,
2013-02-12 09:30:00,43.5,28.0,29.80,WSW,248,22.0,-999.0,55,-99.99,,,0.00,weatherlink.com 1.10,2013-02-12 14:30:00,
2013-02-12 09:45:00,43.6,28.0,29.79,WSW,253,8.0,-999.0,54,-99.99,,,0.00,weatherlink.com 1.10,2013-02-12 14:45:00,
2013-02-12 10:00:00,43.8,28.0,29.78,SSW,195,6.0,-999.0,54,-99.99,,,0.00,weatherlink.com 1.10,2013-02-12 15:00:00,
2013-02-12 10:15:00,44.3,28.0,29.80,WSW,242,10.0,-999.0,53,-99.99,,,0.00,weatherlink.com 1.10,2013-02-12 15:15:00,
2013-02-12 10:30:00,44.6,28.0,29.80,SSW,209,13.0,-999.0,53,-99.99,,,0.00,weatherlink.com 1.10,2013-02-12 15:30:00,
2013-02-12 10:45:00,45.2,28.0,29.80,West,263,19.0,-999.0,52,-99.99,,,0.00,weatherlink.com 1.10,2013-02-12 15:45:00,
2013-02-12 11:00:00,44.7,27.0,29.80,NNW,339,8.0,-999.0,51,-99.99,,,0.00,weatherlink.com 1.10,2013-02-12 16:00:00,
2013-02-12 11:15:00,44.8,28.0,29.81,NW,306,8.0,-999.0,52,-99.99,,,0.00,weatherlink.com 1.10,2013-02-12 16:15:00,
2013-02-12 11:30:00,44.5,27.0,29.82,West,279,5.0,-999.0,51,-99.99,,,0.00,weatherlink.com 1.10,2013-02-12 16:30:00,
2013-02-12 11:46:00,44.5,28.0,29.81,WSW,257,11.0,-999.0,52,-99.99,,,0.00,weatherlink.com 1.10,2013-02-12 16:46:00,
2013-02-12 12:00:00,44.2,28.0,29.82,West,265,20.0,-999.0,53,-99.99,,,0.00,weatherlink.com 1.10,2013-02-12 17:00:00,
2013-02-12 12:15:00,45.3,28.0,29.81,West,270,8.0,-999.0,51,-99.99,,,0.00,weatherlink.com 1.10,2013-02-12 17:15:00,
2013-02-12 12:30:00,45.4,28.0,29.82,West,276,11.0,-999.0,51,-99.99,,,0.00,weatherlink.com 1.10,2013-02-12 17:30:00,
2013-02-12 12:45:00,45.3,28.0,29.82,SW,232,8.0,-999.0,51,-99.99,,,0.00,weatherlink.com 1.10,2013-02-12 17:45:00,
2013-02-12 13:00:00,45.8,28.0,29.80,WSW,238,6.0,-999.0,51,-99.99,,,0.00,weatherlink.com 1.10,2013-02-12 18:00:00,
2013-02-12 13:15:00,45.8,28.0,29.81,West,281,6.0,-999.0,51,-99.99,,,0.00,weatherlink.com 1.10,2013-02-12 18:15:00,
2013-02-12 13:30:00,45.9,29.0,29.81,SW,223,8.0,-999.0,51,-99.99,,,0.00,weatherlink.com 1.10,2013-02-12 18:30:00,
2013-02-12 13:45:00,45.7,28.0,29.81,West,275,13.0,-999.0,51,-99.99,,,0.00,weatherlink.com 1.10,2013-02-12 18:45:00,
2013-02-12 14:00:00,45.5,28.0,29.80,WSW,241,11.0,-999.0,51,-99.99,,,0.00,weatherlink.com 1.10,2013-02-12 19:00:00,
2013-02-12 14:15:00,46.0,29.0,29.81,NW,309,11.0,-999.0,51,-99.99,,,0.00,weatherlink.com 1.10,2013-02-12 19:15:00,
2013-02-12 14:30:00,45.9,29.0,29.80,NW,320,5.0,-999.0,51,-99.99,,,0.00,weatherlink.com 1.10,2013-02-12 19:30:00,
2013-02-12 14:45:00,45.9,28.0,29.80,SSW,213,11.0,-999.0,50,-99.99,,,0.00,weatherlink.com 1.10,2013-02-12 19:45:00,
2013-02-12 15:00:00,45.5,28.0,29.79,WNW,285,13.0,-999.0,51,-99.99,,,0.00,weatherlink.com 1.10,2013-02-12 20:00:00,
2013-02-12 15:15:00,45.8,28.0,29.79,West,259,6.0,-999.0,51,-99.99,,,0.00,weatherlink.com 1.10,2013-02-12 20:15:00,
2013-02-12 15:30:00,45.9,29.0,29.79,WNW,291,5.0,-999.0,51,-99.99,,,0.00,weatherlink.com 1.10,2013-02-12 20:30:00,
2013-02-12 15:45:00,46.0,28.0,29.79,NNW,335,8.0,-999.0,50,-99.99,,,0.00,weatherlink.com 1.10,2013-02-12 20:45:00,
2013-02-12 16:00:00,45.1,28.0,29.76,West,269,2.0,-999.0,51,-99.99,,,0.00,weatherlink.com 1.10,2013-02-12 21:00:00,
2013-02-12 16:15:00,44.9,28.0,29.73,West,268,6.0,-999.0,52,-99.99,,,0.00,weatherlink.com 1.10,2013-02-12 21:15:00,
2013-02-12 16:30:00,44.5,28.0,29.75,West,272,5.0,-999.0,53,-99.99,,,0.00,weatherlink.com 1.10,2013-02-12 21:30:00,
2013-02-12 16:45:00,43.9,28.0,29.78,West,263,8.0,-999.0,53,-99.99,,,0.00,weatherlink.com 1.10,2013-02-12 21:45:00,
2013-02-12 17:00:00,43.4,28.0,29.80,West,271,6.0,-999.0,54,-99.99,,,0.00,weatherlink.com 1.10,2013-02-12 22:00:00,
2013-02-12 17:15:00,42.5,28.0,29.84,WSW,246,6.0,-999.0,56,-99.99,,,0.00,weatherlink.com 1.10,2013-02-12 22:15:00,
2013-02-12 17:30:00,41.9,27.0,29.86,West,266,3.0,-999.0,57,-99.99,,,0.00,weatherlink.com 1.10,2013-02-12 22:30:00,
2013-02-12 17:45:00,41.4,27.0,29.86,SW,232,7.0,-999.0,58,-99.99,,,0.00,weatherlink.com 1.10,2013-02-12 22:45:00,
2013-02-12 18:00:00,40.9,27.0,29.87,WNW,283,2.0,-999.0,58,-99.99,,,0.00,weatherlink.com 1.10,2013-02-12 23:00:00,
2013-02-12 18:15:00,40.6,27.0,29.88,WSW,253,3.0,-999.0,59,-99.99,,,0.00,weatherlink.com 1.10,2013-02-12 23:15:00,
2013-02-12 18:30:00,40.1,27.0,29.88,WNW,282,1.0,-999.0,60,-99.99,,,0.00,weatherlink.com 1.10,2013-02-12 23:30:00,
2013-02-12 18:45:00,39.8,27.0,29.89,West,271,7.0,-999.0,61,-99.99,,,0.00,weatherlink.com 1.10,2013-02-12 23:45:00,
2013-02-12 19:00:00,39.4,27.0,29.89,West,273,6.0,-999.0,61,-99.99,,,0.00,weatherlink.com 1.10,2013-02-13 00:00:00,
2013-02-12 19:15:00,39.3,27.0,29.89,WSW,240,4.0,-999.0,61,-99.99,,,0.00,weatherlink.com 1.10,2013-02-13 00:15:00,
2013-02-12 19:30:00,39.2,27.0,29.88,West,279,6.0,-999.0,61,-99.99,,,0.00,weatherlink.com 1.10,2013-02-13 00:30:00,
2013-02-12 19:45:00,39.1,27.0,29.88,West,259,3.0,-999.0,61,-99.99,,,0.00,weatherlink.com 1.10,2013-02-13 00:45:00,
2013-02-12 20:00:00,38.8,26.0,29.88,WSW,248,2.0,-999.0,61,-99.99,,,0.00,weatherlink.com 1.10,2013-02-13 01:00:00,
2013-02-12 20:15:00,38.5,26.0,29.86,NW,319,2.0,-999.0,62,-99.99,,,0.00,weatherlink.com 1.10,2013-02-13 01:15:00,
2013-02-12 20:30:00,38.2,26.0,29.86,WNW,303,0.0,-999.0,63,-99.99,,,0.00,weatherlink.com 1.10,2013-02-13 01:30:00,
2013-02-12 20:45:00,37.8,27.0,29.86,West,273,0.0,-999.0,64,-99.99,,,0.00,weatherlink.com 1.10,2013-02-13 01:45:00,
2013-02-12 21:00:00,37.1,26.0,29.84,West,273,0.0,-999.0,65,-99.99,,,0.00,weatherlink.com 1.10,2013-02-13 02:00:00,
2013-02-12 21:15:00,36.4,26.0,29.84,West,273,0.0,-999.0,66,-99.99,,,0.00,weatherlink.com 1.10,2013-02-13 02:15:00,
2013-02-12 21:30:00,35.6,26.0,29.84,West,273,0.0,-999.0,69,-99.99,,,0.00,weatherlink.com 1.10,2013-02-13 02:30:00,
2013-02-12 21:45:00,35.0,26.0,29.82,West,273,0.0,-999.0,70,-99.99,,,0.00,weatherlink.com 1.10,2013-02-13 02:45:00,
2013-02-12 22:00:00,34.3,26.0,29.83,West,273,0.0,-999.0,71,-99.99,,,0.00,weatherlink.com 1.10,2013-02-13 03:00:00,
2013-02-12 22:15:00,33.2,26.0,29.84,West,273,2.0,-999.0,75,-99.99,,,0.00,weatherlink.com 1.10,2013-02-13 03:15:00,
2013-02-12 22:30:00,33.0,26.0,29.84,West,273,0.0,-999.0,76,-99.99,,,0.00,weatherlink.com 1.10,2013-02-13 03:30:00,
2013-02-12 22:45:00,32.8,26.0,29.84,West,273,0.0,-999.0,76,-99.99,,,0.00,weatherlink.com 1.10,2013-02-13 03:45:00,
2013-02-12 23:00:00,32.7,26.0,29.85,West,273,2.0,-999.0,77,-99.99,,,0.00,weatherlink.com 1.10,2013-02-13 04:00:00,
2013-02-12 23:15:00,32.6,26.0,29.86,SSW,198,3.0,-999.0,78,-99.99,,,0.00,weatherlink.com 1.10,2013-02-13 04:15:00,
2013-02-12 23:30:00,32.7,27.0,29.86,SSW,198,0.0,-999.0,78,-99.99,,,0.00,weatherlink.com 1.10,2013-02-13 04:30:00,
2013-02-12 23:45:00,32.6,26.0,29.86,SSW,198,3.0,-999.0,78,-99.99,,,0.00,weatherlink.com 1.10,2013-02-13 04:45:00,